[[{"header":{"parameterUnit":"m.s-1","parameterCategory":1,"la1":30.2991,"la2":30.254,"lo1":-89.0895,"lo2":-89.0444,"dy":0.0017,"dx":0.0017,"nx":28,"ny":28,"refTime":"2025-03-24T03:00:00:Z","depth":0,"parameterNumber":2,"parameterNumberName":"U-component_of_WINDS"},"data":[0,0,0,0,0,0,0,0,0,0,0,0,0,0,0,0,0,0,0,0,0,0,0,0,0,0,0,0,0,0,0,0,0,0,0,0,0,0,0,0,0,0,0,0,0,0,0,0,0,0,0,0,0,0,0,0,0,0,0.1271,0.1271,0,0.1261,0.1261,0.1261,0.1275,0.1275,0.1276,0.1276,0.1263,0.1263,0.1262,0,0,0,0,0,0,0,0,0,0,0,0,0,0.1299,0.1299,0.1271,0.1271,0.1271,0.1261,0.1261,0.1261,0.1275,0.1275,0.1276,0.1276,0.1264,0.1263,0.1262,0,0,0,0,0,0,0,0,0,0,0,0,0,0.1288,0.1299,0.1271,0.1277,0.1277,0.1261,0.1261,0.1261,0.1274,0.1275,0.1276,0.1277,0.1264,0.1263,0.1262,0.1239,0,0,0.1258,0.1257,0,0,0,0,0,0,0,0,0.1289,0.1287,0.1276,0.1276,0.1277,0.127,0.1266,0.1254,0.1274,0.1275,0.1276,0.1277,0.1265,0.1264,0.126,0.1239,0.1238,0.1258,0.1257,0.1257,0.1256,0,0,0,0,0,0,0,0.1289,0.1287,0.1267,0.1276,0.1276,0.1279,0.1278,0.1264,0.1266,0.1275,0.1276,0.1275,0.1265,0.1261,0.126,0.1238,0.1258,0.1257,0.1256,0.1256,0.1197,0.1196,0,0,0,0,0,0,0.129,0.1288,0.1268,0.1267,0.1285,0.1278,0.1277,0.1271,0.1266,0.1266,0.1274,0.1276,0.1263,0.1261,0.1259,0.1232,0.1257,0.1255,0.1255,0.1198,0.1197,0.1196,0,0,0,0,0,0,0.129,0.1288,0.1268,0.1278,0.1275,0.1276,0.127,0.1271,0.1267,0.1266,0.1266,0.127,0.1263,0.1261,0.1244,0.1232,0.1255,0.1254,0.1199,0.1197,0.1196,0.1178,0,0,0,0,0,0,0.1291,0.1288,0.128,0.1278,0.1275,0.1254,0.127,0.127,0.1265,0.1267,0.1262,0.1261,0.1264,0.1246,0.1243,0.1231,0.1253,0.12,0.1198,0.1197,0.118,0.1177,0.1174,0,0,0,0,0,0.1292,0.1275,0.128,0.1277,0.1265,0.1253,0.1251,0.1255,0.1264,0.1256,0.1255,0.1262,0.1234,0.1244,0.1241,0.1228,0.1201,0.1199,0.1197,0.1181,0.1177,0.1174,0,0,0,0,0,0,0.1276,0.1275,0.128,0.1262,0.1257,0.1255,0.1245,0.1251,0.1243,0.1245,0.1249,0.1248,0.1229,0.1227,0.1238,0.1206,0.1219,0.1216,0.1208,0.1204,0.1201,0.1202,0.1252,0,0,0,0,0,0.127,0.1261,0.1261,0.1245,0.1242,0.1244,0.1239,0.1242,0.1237,0.1235,0.1233,0.1227,0.1217,0.1211,0.1202,0.118,0.1178,0.1169,0.1166,0.1164,0.1161,0.1149,0.1144,0.119,0.119,0.119,0,0,0.1258,0.1257,0.1251,0.1241,0.1238,0.1228,0.1242,0.1231,0.1223,0.1233,0.1217,0.1215,0.1209,0.119,0.1181,0.1187,0.1148,0.1161,0.1159,0.1158,0.1146,0.1142,0.1138,0.1188,0.1189,0.1189,0,0,0.1231,0.123,0.1216,0.1212,0.1208,0.1209,0.1206,0.1203,0.1202,0.1186,0.1194,0.1184,0.1167,0.1162,0.1157,0.1128,0.1133,0.1125,0.1108,0.1096,0.1092,0.1089,0.1077,0.1073,0.1122,0.1122,0.1122,0,0.1217,0.1202,0.1208,0.1196,0.1191,0.1201,0.1186,0.1182,0.1175,0.1171,0.1178,0.1156,0.1153,0.1132,0.1125,0.1121,0.1116,0.1125,0.1092,0.1089,0.1086,0.1075,0.1071,0.1121,0.1121,0.1121,0.1121,0,0.1184,0.1174,0.1163,0.1156,0.115,0.1137,0.1139,0.1132,0.1136,0.1136,0.1119,0.1116,0.1106,0.1101,0.1104,0.108,0.1084,0.1092,0.1105,0.1081,0.1071,0.1067,0.1119,0.112,0.112,0.112,0,0,0.1146,0.1142,0.1138,0.1135,0.1131,0.1122,0.1109,0.11,0.1093,0.1088,0.1076,0.1061,0.1068,0.1063,0.1065,0.1055,0.1031,0.1064,0.1064,0.1057,0.1003,0.0996,0.0992,0.1035,0.1034,0.1033,0.1003,0,0.1118,0.1096,0.1101,0.1079,0.1069,0.1078,0.1066,0.1061,0.1061,0.1052,0.1051,0.104,0.1051,0.1047,0.1037,0.1036,0.102,0.1038,0.1023,0.1022,0.1023,0.0986,0.098,0.0951,0.0999,0.0998,0.0998,0,0.1083,0.1077,0.1054,0.1051,0.1047,0.1036,0.1028,0.1019,0.1014,0.1014,0.1008,0.1013,0.0998,0.1012,0.0991,0.1004,0.0998,0.0996,0.0995,0.0993,0.1008,0.0983,0.0942,0.0938,0.0992,0.0992,0.0993,0,0.1057,0.1042,0.1027,0.1024,0.102,0.1012,0.101,0.1005,0.0999,0.0992,0.0987,0.0978,0.0973,0.0965,0.0966,0.0976,0.0945,0.0959,0.0944,0.0944,0.0936,0.0937,0.0894,0.0934,0.0934,0.0934,0.0934,0,0.1025,0.101,0.1015,0.1005,0.0988,0.0993,0.0977,0.0975,0.0971,0.0961,0.0968,0.0957,0.0961,0.095,0.0951,0.0933,0.0931,0.093,0.093,0.0929,0.0929,0.0925,0.0926,0.0933,0.0933,0.0933,0.0933,0,0.0992,0.0995,0.0978,0.0976,0.0975,0.0963,0.096,0.0951,0.0951,0.0937,0.0934,0.0934,0.0922,0.0924,0.091,0.091,0.0888,0.0891,0.089,0.0891,0.0875,0.0877,0.0828,0.0821,0.0866,0.0865,0.0865,0,0.0971,0.096,0.0957,0.0951,0.0948,0.0938,0.0932,0.0936,0.093,0.0923,0.0914,0.0902,0.0894,0.0874,0.0872,0.0861,0.0863,0.0847,0.0862,0.0861,0.0862,0.0863,0.0861,0.0844,0.0843,0.0843,0.0843,0,0.0934,0.0935,0.0927,0.0919,0.0912,0.0906,0.09,0.0894,0.0898,0.0889,0.0878,0.0871,0.0857,0.0846,0.0835,0.0832,0.0837,0.0838,0.0834,0.0832,0.0832,0.0831,0.0882,0.0839,0.0839,0.084,0.084,0.084,0.0906,0.0896,0.0892,0.0883,0.0879,0.0873,0.0864,0.0863,0.0854,0.0844,0.0846,0.0833,0.0827,0.0814,0.081,0.0798,0.0804,0.0798,0.0797,0.0795,0.0793,0.0834,0.0796,0.0797,0.0797,0.0797,0.0797,0,0.0868,0.0866,0.0857,0.0849,0.0841,0.0848,0.0842,0.0834,0.0823,0.0817,0.0809,0.0795,0.0783,0.0781,0.077,0.0761,0.0763,0.0758,0.0758,0.0757,0.0789,0.0793,0.0756,0.0756,0.0756,0.0756,0.0756,0.0756,0.0847,0.0831,0.0832,0.0814,0.0812,0.08,0.0795,0.079,0.0786,0.077,0.0761,0.076,0.0755,0.0744,0.0733,0.0733,0.0728,0.0721,0.0721,0.0751,0.0755,0.0759,0.0763,0.072,0.072,0.0691,0.069,0.069]},{"header":{"parameterUnit":"m.s-1","parameterCategory":1,"la1":30.2991,"la2":30.254,"lo1":-89.0895,"lo2":-89.0444,"dy":0.0017,"dx":0.0017,"nx":28,"ny":28,"refTime":"2025-03-24T03:00:00:Z","depth":0,"parameterNumber":3,"parameterNumberName":"V-component_of_WINDS"},"data":[0,0,0,0,0,0,0,0,0,0,0,0,0,0,0,0,0,0,0,0,0,0,0,0,0,0,0,0,0,0,0,0,0,0,0,0,0,0,0,0,0,0,0,0,0,0,0,0,0,0,0,0,0,0,0,0,0,0,0.3495,0.3494,0,0.3464,0.3463,0.3463,0.3434,0.3434,0.3434,0.3433,0.34,0.34,0.3399,0,0,0,0,0,0,0,0,0,0,0,0,0,0.3528,0.3528,0.3495,0.3494,0.3494,0.3464,0.3463,0.3463,0.3435,0.3434,0.3434,0.3433,0.34,0.34,0.3399,0,0,0,0,0,0,0,0,0,0,0,0,0,0.3507,0.3528,0.3495,0.3476,0.3474,0.3464,0.3463,0.3463,0.3435,0.3434,0.3434,0.3433,0.3401,0.34,0.3399,0.3404,0,0,0.3396,0.3396,0,0,0,0,0,0,0,0,0.3508,0.3506,0.3479,0.3478,0.3475,0.3452,0.3463,0.3443,0.3435,0.345,0.3433,0.3433,0.3418,0.3416,0.3411,0.3402,0.3401,0.3396,0.3396,0.3395,0.3395,0,0,0,0,0,0,0,0.351,0.3507,0.3482,0.3479,0.3477,0.3469,0.3466,0.3459,0.3437,0.3448,0.3446,0.3443,0.3417,0.3412,0.341,0.34,0.3396,0.3395,0.3395,0.3395,0.3394,0.3395,0,0,0,0,0,0,0.3514,0.3509,0.3483,0.3481,0.3491,0.3469,0.3465,0.346,0.3437,0.3433,0.3443,0.3442,0.3413,0.3411,0.3409,0.3412,0.3395,0.3395,0.3394,0.3394,0.3394,0.3395,0,0,0,0,0,0,0.3515,0.3512,0.3485,0.3494,0.349,0.3469,0.3464,0.346,0.3455,0.3433,0.3429,0.3442,0.3413,0.341,0.3405,0.3411,0.3394,0.3393,0.3393,0.3394,0.3394,0.3421,0,0,0,0,0,0,0.3516,0.3513,0.3515,0.3495,0.349,0.3482,0.3464,0.346,0.3454,0.3451,0.3431,0.3427,0.3412,0.3407,0.3404,0.3409,0.3393,0.3392,0.3393,0.3394,0.3419,0.3422,0.3425,0,0,0,0,0,0.3518,0.3523,0.3515,0.3512,0.3492,0.3483,0.348,0.3463,0.3454,0.3456,0.3442,0.3428,0.3411,0.3406,0.3404,0.3408,0.3392,0.3393,0.3394,0.3418,0.3421,0.3425,0,0,0,0,0,0,0.3544,0.352,0.3511,0.351,0.3499,0.3478,0.3479,0.3467,0.3457,0.3455,0.3434,0.343,0.3428,0.3418,0.3413,0.3412,0.3399,0.34,0.3418,0.3422,0.3425,0.3427,0.3392,0,0,0,0,0,0.355,0.3545,0.3524,0.3525,0.352,0.3501,0.3496,0.3484,0.3471,0.3466,0.3452,0.3439,0.3431,0.3426,0.3417,0.3418,0.3413,0.342,0.3423,0.3425,0.3425,0.3425,0.3427,0.3398,0.3398,0.3398,0,0,0.3561,0.3548,0.3546,0.353,0.352,0.3515,0.3497,0.3492,0.3488,0.3465,0.346,0.3449,0.3434,0.3432,0.343,0.3424,0.3433,0.3426,0.3429,0.3428,0.3426,0.3429,0.3431,0.3399,0.3399,0.3399,0,0,0.3579,0.3569,0.3569,0.3559,0.3544,0.3531,0.3531,0.3513,0.3505,0.3499,0.3482,0.3477,0.3463,0.3453,0.3446,0.3461,0.3448,0.3459,0.3473,0.3473,0.3475,0.3477,0.3482,0.3484,0.346,0.346,0.346,0,0.3596,0.3587,0.357,0.3566,0.356,0.354,0.3539,0.3531,0.3513,0.3509,0.3502,0.3484,0.3473,0.3468,0.3472,0.3467,0.3466,0.3461,0.3476,0.3478,0.3479,0.3484,0.3486,0.3461,0.3461,0.3461,0.3461,0,0.3608,0.3602,0.3604,0.3588,0.3582,0.358,0.3562,0.3558,0.3547,0.3535,0.3529,0.3515,0.3503,0.3501,0.349,0.3495,0.3491,0.348,0.3467,0.3484,0.3488,0.3489,0.3463,0.3463,0.3462,0.3462,0,0,0.3641,0.3616,0.3617,0.3609,0.3592,0.3587,0.3584,0.3573,0.3569,0.3558,0.3555,0.3544,0.3534,0.3527,0.3514,0.3514,0.3526,0.3503,0.3503,0.3507,0.353,0.3538,0.354,0.3518,0.3518,0.3518,0.3531,0,0.3655,0.3649,0.3634,0.3632,0.3626,0.3608,0.3605,0.3594,0.3583,0.3576,0.3564,0.3556,0.3544,0.354,0.3539,0.3525,0.353,0.3524,0.3514,0.3513,0.3517,0.3542,0.355,0.3562,0.3533,0.3533,0.3533,0,0.3671,0.3662,0.366,0.3643,0.364,0.3638,0.3626,0.3621,0.3607,0.3599,0.3591,0.3577,0.3573,0.3562,0.3555,0.3551,0.3546,0.3538,0.3538,0.3536,0.3524,0.3539,0.3566,0.3568,0.3535,0.3535,0.3535,0,0.3695,0.3682,0.3679,0.3673,0.3653,0.3652,0.3643,0.363,0.3624,0.3614,0.361,0.3599,0.3593,0.3585,0.3569,0.3563,0.3564,0.3551,0.3556,0.3557,0.3557,0.3557,0.3582,0.3555,0.3555,0.3555,0.3555,0,0.3712,0.3711,0.3689,0.3687,0.3686,0.3668,0.3667,0.3657,0.3645,0.364,0.3624,0.362,0.3599,0.3592,0.358,0.3576,0.3573,0.3566,0.3563,0.3567,0.3568,0.3563,0.3561,0.3556,0.3555,0.3555,0.3555,0,0.3737,0.3722,0.3718,0.37,0.3695,0.3695,0.3679,0.3676,0.3664,0.3659,0.3657,0.3638,0.363,0.3613,0.36,0.3591,0.359,0.3584,0.3594,0.3592,0.3598,0.3597,0.362,0.3622,0.3595,0.3595,0.3595,0,0.3749,0.3748,0.373,0.3726,0.3718,0.3712,0.3706,0.3689,0.3684,0.3669,0.3668,0.3659,0.365,0.3637,0.3622,0.3612,0.3605,0.3614,0.3604,0.3608,0.3605,0.3605,0.3604,0.3616,0.3617,0.3617,0.3617,0,0.3771,0.3764,0.3756,0.3747,0.374,0.3732,0.3722,0.372,0.37,0.3695,0.3686,0.368,0.3667,0.3657,0.3645,0.3636,0.3623,0.3621,0.3621,0.3625,0.3631,0.3627,0.36,0.362,0.362,0.362,0.362,0.3619,0.3789,0.3787,0.3775,0.3767,0.3758,0.375,0.3746,0.3734,0.3727,0.3715,0.3706,0.3698,0.3685,0.3667,0.3659,0.3652,0.3646,0.3647,0.3647,0.3647,0.3649,0.3633,0.365,0.365,0.365,0.365,0.365,0,0.381,0.3801,0.3794,0.3781,0.3775,0.3765,0.3754,0.3749,0.3743,0.3732,0.3724,0.3714,0.3705,0.369,0.3679,0.3677,0.3671,0.3675,0.3674,0.3672,0.3655,0.3656,0.368,0.368,0.368,0.368,0.368,0.368,0.382,0.3816,0.3807,0.3799,0.379,0.3783,0.3777,0.3769,0.3761,0.3751,0.3743,0.3734,0.3721,0.3709,0.37,0.3696,0.3693,0.3698,0.3692,0.3676,0.3673,0.3671,0.3671,0.3698,0.3698,0.3709,0.3709,0.3709]}]]